If you wish to contribute or participate in the discussions about articles you are invited to join SKYbrary as a registered user

 Actions

Angers-Loire Airport

From SKYbrary Wiki

LFJR
Airport
ICAO: LFJR – IATA: ANE
Summary
Name Angers-Loire Airport
Region Europe
Territory France FR.gif
Location Marcé, Pays de la Loire
Serving Angers
Elevation 59.131 m
194 ft
194 ft59.131 m
Type medium airport
Coordinates 47° 33' 37.08", -0° 18' 43.9992"
Runways
Designator Length Width Surface ROPS
8/26 1800 m5,905.512 ft 45 m147.638 ft ASP yes/yes


METAR
Observation LFJR 230400Z AUTO 04003KT 360V070 CAVOK 10/08 Q1028
Station MARCE
Date/Time 23 June 2018 04:00:00
Wind direction 40°
Wind speed 03 kts
Lowest cloud amount clouds and visibility OK
Temperature 10°C
Dew point 8°C
Humidity 87%
QNH 1028 hPa
Weather condition n/a

Maps

Terrain

Loading map...

Airport Layout

Loading map...


Accidents & Serious Incidents at or in vicinity of LFJR

None on SKYbrary